Tracking 30743 objects as of 20-Jun-2025
HD Live streaming from Space Station
objects crossing your sky now

STARLINK-32177

Track STARLINK-32177 now!
10-day predictions
STARLINK-32177 is classified as:


NORAD ID: 60441
Int'l Code: 2024-144S
Perigee: 481.4 km
Apogee: 483.4 km
Inclination: 53.2 °
Period: 94.1 minutes
Semi major axis: 6853 km
RCS: Unknown
Launch date: August 12, 2024
Source: United States (US)
Launch site: AIR FORCE EASTERN TEST RANGE (AFETR)
Your satellite tracking list
Your tracking list is empty




NASA's NSSDC Master Catalog

Two Line Element Set (TLE):
1 60441U 24144S   25169.82520598  .00001874  00000-0  75418-4 0  9991
2 60441  53.1611   2.5192 0001492  86.0558 274.0613 15.30191049 48863
Source of the keplerian elements: AFSPC